TimeCDT,TemperatureF,Dew PointF,Humidity,Sea Level PressureIn,VisibilityMPH,Wind Direction,Wind SpeedMPH,Gust SpeedMPH,PrecipitationIn,Events,Conditions,WindDirDegrees,DateUTC
12:15 AM,68.2,57.4,68,29.90,10.0,Calm,Calm,-,N/A,,Clear,0,2013-10-01 05:15:00
12:35 AM,66.0,57.4,74,29.90,10.0,Calm,Calm,-,N/A,,Clear,0,2013-10-01 05:35:00
12:55 AM,64.6,57.2,77,29.90,10.0,Calm,Calm,-,N/A,,Clear,0,2013-10-01 05:55:00
1:15 AM,62.6,56.5,80,29.90,10.0,Calm,Calm,-,N/A,,Clear,0,2013-10-01 06:15:00
1:35 AM,63.7,56.7,78,29.90,10.0,Calm,Calm,-,N/A,,Clear,0,2013-10-01 06:35:00
1:55 AM,62.6,56.5,80,29.90,10.0,Calm,Calm,-,N/A,,Clear,0,2013-10-01 06:55:00
2:15 AM,62.6,56.5,80,29.90,10.0,Calm,Calm,-,N/A,,Clear,0,2013-10-01 07:15:00
2:35 AM,61.9,56.3,82,29.90,10.0,NW,3.5,-,N/A,,Clear,320,2013-10-01 07:35:00
2:55 AM,61.0,56.1,84,29.90,10.0,Calm,Calm,-,N/A,,Clear,0,2013-10-01 07:55:00
3:15 AM,59.9,55.6,86,29.89,10.0,Calm,Calm,-,N/A,,Clear,0,2013-10-01 08:15:00
3:35 AM,60.4,56.1,86,29.89,10.0,Calm,Calm,-,N/A,,Clear,0,2013-10-01 08:35:00
3:55 AM,60.8,56.5,86,29.89,10.0,Calm,Calm,-,N/A,,Clear,0,2013-10-01 08:55:00
4:15 AM,59.2,55.4,87,29.89,10.0,Calm,Calm,-,N/A,,Clear,0,2013-10-01 09:15:00
4:35 AM,59.0,55.4,88,29.89,10.0,Calm,Calm,-,N/A,,Scattered Clouds,0,2013-10-01 09:35:00
4:55 AM,60.8,57.2,88,29.89,10.0,Calm,Calm,-,N/A,,Mostly Cloudy,0,2013-10-01 09:55:00
5:15 AM,61.9,58.5,89,29.90,10.0,Calm,Calm,-,N/A,,Overcast,0,2013-10-01 10:15:00
5:35 AM,62.8,58.8,87,29.90,10.0,Calm,Calm,-,N/A,,Overcast,0,2013-10-01 10:35:00
5:55 AM,63.5,59.5,87,29.90,10.0,Calm,Calm,-,N/A,,Overcast,0,2013-10-01 10:55:00
6:15 AM,64.2,59.5,85,29.90,10.0,Calm,Calm,-,N/A,,Overcast,0,2013-10-01 11:15:00
6:35 AM,64.6,61.0,88,29.91,10.0,Calm,Calm,-,N/A,,Overcast,0,2013-10-01 11:35:00
6:55 AM,67.5,64.0,89,29.91,10.0,Calm,Calm,-,N/A,,Overcast,0,2013-10-01 11:55:00
7:15 AM,69.4,66.6,91,29.92,10.0,South,3.5,-,N/A,,Overcast,170,2013-10-01 12:15:00
7:35 AM,70.2,67.3,91,29.92,10.0,South,5.8,-,N/A,,Overcast,180,2013-10-01 12:35:00
7:55 AM,71.1,67.6,89,29.93,10.0,SSE,4.6,-,N/A,,Overcast,160,2013-10-01 12:55:00
8:15 AM,71.6,67.6,87,29.93,10.0,SSE,4.6,-,N/A,,Overcast,150,2013-10-01 13:15:00
8:35 AM,72.0,68.0,87,29.93,10.0,South,5.8,-,N/A,,Overcast,180,2013-10-01 13:35:00
8:55 AM,72.5,67.8,85,29.94,10.0,SSE,3.5,-,N/A,,Mostly Cloudy,160,2013-10-01 13:55:00
9:15 AM,74.5,68.2,81,29.94,10.0,SSE,9.2,-,N/A,,Mostly Cloudy,160,2013-10-01 14:15:00
9:35 AM,74.3,67.8,80,29.94,10.0,South,8.1,-,N/A,,Mostly Cloudy,180,2013-10-01 14:35:00
9:55 AM,76.3,67.6,74,29.95,10.0,SSE,8.1,-,N/A,,Mostly Cloudy,150,2013-10-01 14:55:00
10:15 AM,77.0,66.7,70,29.95,10.0,SSE,9.2,-,N/A,,Scattered Clouds,160,2013-10-01 15:15:00
10:35 AM,78.4,66.6,67,29.95,10.0,South,8.1,-,N/A,,Scattered Clouds,170,2013-10-01 15:35:00
10:55 AM,79.5,65.7,62,29.96,10.0,South,9.2,-,N/A,,Scattered Clouds,170,2013-10-01 15:55:00
11:15 AM,78.8,66.4,66,29.96,10.0,SSW,9.2,-,N/A,,Mostly Cloudy,200,2013-10-01 16:15:00
11:35 AM,80.8,66.0,61,29.95,10.0,SSW,9.2,-,N/A,,Mostly Cloudy,200,2013-10-01 16:35:00
11:55 AM,81.0,65.5,59,29.95,10.0,SSW,8.1,17.3,N/A,,Scattered Clouds,200,2013-10-01 16:55:00
12:15 PM,82.2,65.1,56,29.95,10.0,SSW,8.1,-,N/A,,Scattered Clouds,200,2013-10-01 17:15:00
12:35 PM,83.1,64.6,53,29.94,10.0,South,6.9,17.3,N/A,,Scattered Clouds,170,2013-10-01 17:35:00
12:55 PM,84.6,63.7,49,29.94,10.0,South,15.0,-,N/A,,Mostly Cloudy,190,2013-10-01 17:55:00
1:15 PM,85.3,63.7,48,29.94,10.0,SSE,11.5,17.3,N/A,,Scattered Clouds,160,2013-10-01 18:15:00
1:35 PM,85.3,62.2,46,29.93,10.0,South,8.1,19.6,N/A,,Scattered Clouds,190,2013-10-01 18:35:00
1:55 PM,85.6,63.0,46,29.92,10.0,SSE,10.4,-,N/A,,Scattered Clouds,160,2013-10-01 18:55:00
2:15 PM,86.0,63.0,46,29.91,10.0,SSE,5.8,-,N/A,,Clear,160,2013-10-01 19:15:00
2:35 PM,86.7,62.4,44,29.90,10.0,South,9.2,-,N/A,,Clear,170,2013-10-01 19:35:00
2:55 PM,86.7,61.7,43,29.90,10.0,SE,9.2,-,N/A,,Clear,140,2013-10-01 19:55:00
3:15 PM,86.9,62.8,44,29.89,10.0,SSE,6.9,-,N/A,,Clear,150,2013-10-01 20:15:00
3:35 PM,87.6,62.6,43,29.89,10.0,South,8.1,-,N/A,,Scattered Clouds,170,2013-10-01 20:35:00
3:55 PM,87.4,62.2,43,29.89,10.0,SSE,9.2,-,N/A,,Scattered Clouds,150,2013-10-01 20:55:00
4:15 PM,86.5,61.9,43,29.89,10.0,SSE,10.4,-,N/A,,Scattered Clouds,160,2013-10-01 21:15:00
4:35 PM,87.1,61.7,42,29.89,10.0,SSE,9.2,-,N/A,,Scattered Clouds,160,2013-10-01 21:35:00
4:55 PM,87.1,61.7,42,29.88,10.0,SSE,6.9,-,N/A,,Clear,150,2013-10-01 21:55:00
5:15 PM,86.7,61.5,43,29.88,10.0,South,5.8,-,N/A,,Clear,170,2013-10-01 22:15:00
5:35 PM,86.4,61.7,43,29.88,10.0,South,8.1,-,N/A,,Clear,170,2013-10-01 22:35:00
5:55 PM,85.8,61.2,43,29.88,10.0,SSE,8.1,-,N/A,,Clear,150,2013-10-01 22:55:00
6:15 PM,85.3,61.5,45,29.88,10.0,SE,6.9,-,N/A,,Clear,140,2013-10-01 23:15:00
6:35 PM,84.6,61.0,45,29.88,10.0,SSE,9.2,-,N/A,,Clear,160,2013-10-01 23:35:00
6:55 PM,83.5,61.7,48,29.89,10.0,South,4.6,-,N/A,,Clear,170,2013-10-01 23:55:00
7:15 PM,81.9,62.6,52,29.89,10.0,South,4.6,-,N/A,,Clear,170,2013-10-02 00:15:00
7:35 PM,80.6,62.6,54,29.89,10.0,SSE,3.5,-,N/A,,Clear,160,2013-10-02 00:35:00
7:55 PM,79.7,62.6,56,29.90,10.0,SE,3.5,-,N/A,,Clear,140,2013-10-02 00:55:00
8:15 PM,78.4,62.6,58,29.90,10.0,SE,3.5,-,N/A,,Clear,140,2013-10-02 01:15:00
8:35 PM,77.4,62.2,59,29.90,10.0,SE,3.5,-,N/A,,Clear,140,2013-10-02 01:35:00
8:55 PM,76.1,62.4,62,29.91,10.0,Calm,Calm,-,N/A,,Clear,0,2013-10-02 01:55:00
9:15 PM,75.6,61.9,62,29.93,10.0,SE,4.6,-,N/A,,Scattered Clouds,130,2013-10-02 02:15:00
9:35 PM,75.9,63.0,64,29.94,10.0,SE,5.8,-,N/A,,Scattered Clouds,140,2013-10-02 02:35:00
9:55 PM,75.9,66.2,72,29.94,10.0,SE,5.8,-,N/A,,Clear,140,2013-10-02 02:55:00
10:15 PM,75.9,68.4,77,29.94,10.0,SE,5.8,-,N/A,,Clear,140,2013-10-02 03:15:00
10:35 PM,75.7,69.3,80,29.95,10.0,SE,5.8,-,N/A,,Clear,140,2013-10-02 03:35:00
10:55 PM,75.6,70.2,83,29.95,10.0,SE,6.9,-,N/A,,Scattered Clouds,140,2013-10-02 03:55:00
11:15 PM,76.1,70.7,83,29.96,10.0,SE,8.1,-,N/A,,Overcast,140,2013-10-02 04:15:00
11:35 PM,76.1,71.1,84,29.96,10.0,SSE,9.2,-,N/A,,Overcast,150,2013-10-02 04:35:00
11:55 PM,76.1,70.9,84,29.96,10.0,SSE,9.2,-,N/A,,Overcast,150,2013-10-02 04:55:00